Preview of NWS' New Version of Forecast
This preview is not operational and should not be used for support decisions.

Regional Weather Roundup (RWR)

Issued by National Weather Service (NWS)

                            
000
ASUS42 KTBW 210318
RWRFL 
FLORIDA REGIONAL WEATHER ROUNDUP
NATIONAL WEATHER SERVICE TAMPA BAY RUSKIN FL
1100 PM EDT FRI SEP 20 2019

NOTE: "FAIR" INDICATES FEW OR NO CLOUDS BELOW 12,000 FEET WITH NO
SIGNIFICANT WEATHER AND/OR OBSTRUCTIONS TO VISIBILITY.

FLZ001>010-012>015-112-114-115-210400-
PANHANDLE FLORIDA
  
CITY           SKY/WX    TMP DP  RH WIND       PRES   REMARKS
PENSACOLA      FAIR      79  72  79 E3        30.15R                  
PENSACOLA NAS  FAIR      77  70  79 E5        30.14R                  
MILTON NAS     FAIR      69  66  90 N3        30.16R                  
CRESTVIEW      FAIR      70  63  78 CALM      30.17R                  
DUKE FIELD     FAIR      71  66  85 CALM      30.16R                  
VALPARAISO     FAIR      75  67  77 CALM      30.14R                  
MARY ESTHER    PTCLDY    72  68  88 N5        30.13R                  
TRI COUNTY     FAIR      71  63  75 CALM      30.17R                  
PANAMA CITY    FAIR      71  63  75 NE3       30.14R                  
TYNDALL AFB    FAIR      78  64  62 E5        30.13R                  
APALACHICOLA   FAIR      78  67  68 NE6       30.13S                  

STATION/POSITION SKY/WX   TEMP    WIND        PRES    WAVE   SWELL
                          AIR SEA DIR/SP/G            HT/PER HT/PER
                          (F)     (DEG/KT/KT) (MB)    (FT/S) (FT/S)
30.1N   87.6W              83 85  110/ 12/ 16 1020.4R   5/ 7   3/ 7
29.2N   88.2W              83      90/ 17/ 21 1019.6R   6/ 7
28.8N   86.0W                 85  100/ 19/ 25 1019.4R   6/ 7
PANAMA CITY BEAC           81 84   60/  3/  4 1021.0
TOWER C                    83     100/ 23/ 25 1020.6R
28.5N   84.5W              83      80/ 19/ 23 1020.4R   6/ 6

$$
FLZ011-016>038-118-127-128-134-139-239-210400-
NORTH FLORIDA
  
CITY           SKY/WX    TMP DP  RH WIND       PRES   REMARKS
MARIANNA       FAIR      73  61  65 E5        30.16R                  
TALLAHASSEE    FAIR      78  66  66 E15       30.17R                  
PERRY          FAIR      74  65  73 E6        30.20R                  
LIVE OAK       CLOUDY    73  70  88 NE6       30.20R                  
CROSS CITY     FAIR      73  66  77 NE5       30.18S                  
LAKE CITY      MOCLDY    72  68  88 NE3       30.21R                  
GAINESVILLE    FAIR      72  66  81 NE6       30.21R                  
WILLISTON      FAIR      73  68  84 CALM      30.18S                  
PALATKA        MOCLDY    72  64  78 E3        30.19S                  
MAYPORT NAS    CLOUDY    79  69  71 SE12G21   30.20R                  
JACKSONVILLE   FAIR      72  67  84 N5        30.20R                  
JAX NAS        MOCLDY    75  70  84 E7        30.20R                  
JAX CECIL      LGT RAIN  73  70  88 CALM      30.20R                  
FERNANDINA BEA FAIR      79  67  67 E13       30.21R                  
ST AUGUSTINE   CLOUDY   N/A N/A N/A E12       30.20S                  
PALM COAST     CLOUDY    78  66  65 E14       30.18S                  

STATION/POSITION SKY/WX   TEMP    WIND        PRES    WAVE   SWELL
                          AIR SEA DIR/SP/G            HT/PER HT/PER
                          (F)     (DEG/KT/KT) (MB)    (FT/S) (FT/S)
SHELL POINT      NOT AVBL
KEATON BEACH               76      70/  9/ 11 1022.1R
CEDAR KEY                  77      70/ 11/ 13 1021.8R
FERNANDINA                 84 81   80/  5/ 10 1023.4
30.7N   81.3W                 82                N/A     6/ 7   2/13
MAYPORT                    80 82   90/ 10/ 17 1022.9
31.4N   80.9W              80 81  100/ 17/ 19 1023.1S   5/ 6   3/ 8
ST AUGUSTINE               80 81  100/ 18/ 20 1022.4R

$$
FLZ040-043>046-052-053-057-058-063-144-210400-
INTERIOR CENTRAL FLORIDA
  
CITY           SKY/WX    TMP DP  RH WIND       PRES   REMARKS
OCALA          FAIR      74  68  81 NE5       30.18R                  
LEESBURG       FAIR      75  66  73 NE6       30.17S                  
SANFORD        FAIR      73  66  78 NE6       30.16S                  
ORLANDO EXEC   FAIR      75  66  73 NE7       30.16R                  
ORLANDO INTL   LGT RAIN  75  66  73 NE12      30.15S                  
KISSIMMEE      FAIR      76  66  71 NE7       30.16S                  
WINTER HAVEN   FAIR      75  65  70 NE7       30.15S                  
BARTOW         FAIR      75  66  73 NE8       30.13S                  
SEBRING        FAIR      72  68  87 NE7       30.13R                  
OKEECHOBEE     MOCLDY    73  66  78 E5        30.11S                  

$$
FLZ041-047-054-059-064-141-147-210400-
EAST CENTRAL FLORIDA
  
CITY           SKY/WX    TMP DP  RH WIND       PRES   REMARKS
DAYTONA BEACH  FAIR      79  66  64 E8G20     30.17S                  
DELAND         MOCLDY    73  66  78 NE3       30.17R                  
JFK SPACE CTR  CLEAR     78  66  66 E13       30.15S                  
CAPE CANAVERAL FAIR      79  70  72 E14G24    30.14S                  
PATRICK AFB    FAIR      80  70  71 E18G26    30.13S                  
MELBOURNE      FAIR      81  67  62 E16G25    30.13S                  
VERO BEACH     CLOUDY    80  67  64 E21G29    30.12S                  
FT PIERCE      MOCLDY    80  65  59 E13G24    30.11S                  
STUART         FAIR      81  66  61 E17G23    30.12S                  

STATION/POSITION SKY/WX   TEMP    WIND        PRES    WAVE   SWELL
                          AIR SEA DIR/SP/G            HT/PER HT/PER
                          (F)     (DEG/KT/KT) (MB)    (FT/S) (FT/S)
28.5N   80.2W              81 83   70/ 23/ 29 1021.2R  10/13   7/13
28.9N   78.5W              79 81   80/ 21/ 25 1021.8F  11/15  10/15
TRIDENT PIER               80 82   60/ 15/ 22 1022.3
28.4N   80.5W                 82                N/A     5/14   2/14
27.5N   80.2W                 82                N/A     9/13   5/13

$$
FLZ050-056-061-142-242-148-248-149-249-151-251-155-255-
160-260-210400-
WEST CENTRAL FLORIDA
  
CITY           SKY/WX    TMP DP  RH WIND       PRES   REMARKS
CRYSTAL RIVER  FAIR      72  66  83 CALM      30.17R                  
INVERNESS      FAIR      70  70 100 NE3       30.17R                  
BROOKSVILLE    FAIR      73  64  73 NE6       30.16R                  
CLEARWATER AIR FAIR      77  63  61 E7        30.14R                  
ST PETE CLEARW FAIR      79  65  62 E10G18    30.13R                  
TAMPA INTL     FAIR      78  63  59 NE9       30.14R                  
TAMPA EXEC     FAIR      73  64  73 E6        30.14S                  
PLANT CITY     FAIR      75  66  73 NE7       30.16S                  
MACDILL AFB    FAIR      77  64  65 E14       30.12R                  
PETER O KNIGHT CLOUDY    77  68  73 E13       30.13S                  
ST PETERSBURG  FAIR      80  67  64 E22       30.12R                  
SARASOTA       FAIR      78  66  66 NE10      30.09R                  
VENICE         FAIR      77  68  73 NE13G22   30.10S                  

STATION/POSITION SKY/WX   TEMP    WIND        PRES    WAVE   SWELL
                          AIR SEA DIR/SP/G            HT/PER HT/PER
                          (F)     (DEG/KT/KT) (MB)    (FT/S) (FT/S)
27.3N   84.2W                 85                N/A     9/ 7
CLEARWATER BEACH           79 85   70/ 10/ 16 1020.3
MIDDLE TAMPA BAY           79      90/ 18/ 20 1020.0
VENICE                     77 85   60/ 10/ 13 1019.2R

$$
FLZ066-069-070-075>078-162-262-165-265-210400-
SOUTHWEST FLORIDA AND KEYS
  
CITY           SKY/WX    TMP DP  RH WIND       PRES   REMARKS
PUNTA GORDA    FAIR      73  70  90 E8        30.11R                  
FT MYERS       FAIR      77  68  73 NE12      30.07S                  
SOUTHWEST INTL FAIR      76  68  76 E13       30.08S                  
NAPLES         FAIR      79  70  74 NE14      30.06R                  
MARCO ISLAND   FAIR      77  70  79 NE12      30.07R                  
IMMOKALEE      MOCLDY    75  68  78 NE10G16   30.07R                  
MARATHON       LGT RAIN  81  76  84 NE21      30.00R                  
KEY WEST NAS   FAIR      82  76  81 NE17      30.00R                  
KEY WEST INTL  FAIR      82  76  81 NE13G26   30.00S                  

STATION/POSITION SKY/WX   TEMP    WIND        PRES    WAVE   SWELL
                          AIR SEA DIR/SP/G            HT/PER HT/PER
                          (F)     (DEG/KT/KT) (MB)    (FT/S) (FT/S)
NAPLES                     79 84   60/ 10/ 15 1017.9
26.0N   85.6W              84 86   80/ 21/ 29 1016.8
DRY TORTUGAS               83      80/ 31/ 33 1015.7R
SAND KEY                   82      60/ 24/ 27 1013.8R
SOMBRERO KEY               83      60/ 22/ 27 1015.7R
LONG KEY                   81                 1014.7R

$$
FLZ067-068-071>074-168-172>174-210400-
SOUTHEAST FLORIDA 
  
CITY           SKY/WX    TMP DP  RH WIND       PRES   REMARKS
W PALM BEACH   MOCLDY    81  69  67 E18G31    30.09S                  
BOCA RATON     PTCLDY    82  70  65 E20G32    30.07S                  
FT LAUDER-EXEC MOCLDY    81  68  64 E17G26    30.06R                  
FT LAUDERDALE  FAIR      81  68  64 E18G31    30.05R                  
POMPANO BEACH  MOCLDY    82  68  62 E22G36    30.06S                  
PEMBROKE PINES CLOUDY    82  69  64 NE21G30   30.07R                  
OPA LOCKA      MOCLDY    81  71  71 E15G30    30.06R                  
MIAMI          MOCLDY    83  69  62 E16G28    30.04S                  
WEST KENDALL   RAIN      81  73  76 NE18G28   30.03R                  
HOMESTEAD      CLOUDY    82  74  77 NE20G28   30.03R                  

STATION/POSITION SKY/WX   TEMP    WIND        PRES    WAVE   SWELL
                          AIR SEA DIR/SP/G            HT/PER HT/PER
                          (F)     (DEG/KT/KT) (MB)    (FT/S) (FT/S)
VIRGINIA KEY               82 84   40/ 20/ 26 1016.7
LAKE WORTH                 79 82   70/ 24/ 28 1019.7
FOWEY ROCKS                82 83   70/ 31/ 35 1017.1R
SETTLEMENT POINT           80      70/ 24/ 28 1019.0R

$$